Wind_Speed
6 7 8 7 6 4 3 2 2 3 3 4 5 6 8 9 9 10 11 12 12 10 10 10 10 11 11 11 11 12 12 13 13 13 13 14 14 14 14 14 14 13 13 13 12 12 11 11 11
7 9 9 7 5 5 4 4 4 4 5 6 7 8 9 10 11 12 12 12 12 12 12 13 14 13 13 14 14 14 15 15 15 16 16 16 16 16 16 16 15 15 14 13 13 12 12 11 11
9 10 11 8 7 6 6 5 5 4 6 7 8 9 11 12 13 13 13 14 15 15 15 16 16 16 16 17 17 17 18 18 18 18 18 18 18 19 18 18 17 17 16 14 14 13 12 12 11
9 10 11 9 9 8 7 7 6 7 7 8 10 11 12 13 14 15 16 17 17 17 18 19 19 19 19 20 21 21 21 21 21 21 21 21 21 21 21 20 19 18 17 16 15 15 14 13 12
11 11 11 11 11 10 9 8 8 9 10 10 11 12 14 15 16 17 18 18 19 20 21 21 21 21 21 22 22 23 24 25 25 24 23 23 23 23 23 22 22 20 20 19 18 17 15 14 13
12 13 12 12 11 11 10 10 11 11 12 12 12 13 14 15 16 18 19 20 20 21 22 23 23 23 24 24 25 26 27 27 27 27 27 26 26 25 24 24 24 23 22 20 20 19 17 15 14
13 13 14 13 11 11 11 11 12 12 12 13 14 14 15 16 17 19 20 21 22 22 23 23 24 24 25 25 26 27 28 29 30 30 30 29 29 28 27 27 26 26 25 24 22 21 20 18 16
15 15 14 13 13 13 13 13 13 13 14 14 15 15 16 17 18 19 20 20 21 21 22 23 23 24 25 25 26 27 28 29 30 31 31 31 31 31 30 29 28 28 27 26 25 23 22 20 19
15 16 15 14 14 14 14 14 14 14 15 15 16 16 16 17 18 19 19 20 20 21 21 21 21 21 22 23 24 25 26 27 28 30 31 32 32 32 32 31 29 28 28 27 26 25 24 23 21
16 16 16 15 15 14 14 14 14 14 15 15 15 15 16 17 18 18 19 19 19 19 19 19 19 19 20 20 21 22 23 24 26 27 29 31 31 32 32 32 32 31 30 29 28 27 25 24 22
17 17 16 16 16 15 14 14 14 14 14 14 15 15 16 16 16 17 17 17 17 17 17 17 18 18 18 19 20 20 21 22 23 24 25 27 29 31 32 33 33 33 32 31 29 28 27 25 24
16 16 15 15 15 15 14 13 14 13 13 13 14 15 15 15 15 16 16 15 16 16 16 16 16 17 17 18 19 19 20 21 22 23 24 25 26 28 30 31 33 33 33 32 31 30 29 27 27
17 15 15 14 13 13 13 13 11 11 12 12 13 14 14 14 14 14 14 15 15 16 16 16 17 17 18 18 18 18 18 19 20 21 22 23 25 26 27 29 30 32 32 32 31 30 29 28 28
17 16 15 14 14 13 12 11 10 11 11 12 13 13 12 12 12 12 13 14 15 15 16 16 17 17 18 18 18 18 18 18 19 20 21 23 24 25 26 27 29 30 31 32 31 30 29 29 27
17 16 14 13 12 11 11 10 10 10 10 11 12 11 10 10 11 12 13 14 15 15 16 16 17 17 18 18 18 18 18 18 18 18 19 20 21 23 24 26 27 28 30 32 32 31 31 30 28
17 15 14 12 11 11 10 9 9 9 9 10 10 9 8 9 10 11 12 13 14 15 16 17 18 18 19 19 19 19 19 18 18 17 17 18 19 20 22 23 25 27 28 30 31 32 32 31 29
16 15 13 12 11 11 10 9 10 9 9 9 8 7 7 7 8 9 11 13 14 16 17 18 19 20 20 20 20 20 19 19 18 17 17 17 17 17 19 20 23 25 26 28 30 31 32 32 31
15 13 12 11 11 10 10 10 9 9 8 7 7 6 6 6 7 9 10 12 14 16 17 19 20 20 21 21 21 21 20 19 18 16 15 15 15 16 17 18 20 22 24 26 28 29 31 32 31
14 12 11 11 11 11 10 10 9 8 7 6 5 5 4 4 6 8 10 13 14 16 18 20 21 21 21 22 22 22 21 19 18 17 16 15 15 15 15 16 17 19 21 23 25 27 30 31 31
13 12 11 11 11 10 10 9 8 7 6 5 4 3 3 4 6 8 11 13 15 17 19 20 21 21 22 22 23 22 21 20 19 18 16 15 15 15 15 15 16 17 18 20 22 24 27 30 31
12 11 11 11 10 10 9 8 8 7 5 4 3 2 2 4 6 8 11 13 15 17 18 19 21 22 22 23 23 23 22 22 21 19 17 16 15 14 14 14 14 15 16 18 20 22 24 27 29
13 12 12 11 11 10 9 8 8 6 5 4 3 2 2 4 6 8 10 13 15 16 18 19 21 22 23 23 23 23 23 22 21 20 18 17 15 14 14 13 13 13 14 15 17 19 21 24 26
13 12 11 11 11 11 10 8 7 6 5 4 3 2 2 3 6 8 10 12 14 16 17 19 20 22 23 23 24 24 24 23 21 20 19 18 16 14 13 12 12 12 13 13 15 17 19 20 22
12 12 12 11 11 10 9 8 7 6 5 4 3 2 1 3 5 7 9 11 13 15 17 19 20 22 23 23 24 24 24 23 22 21 20 19 17 15 14 12 11 10 11 11 12 14 17 18 20
12 12 12 11 10 10 9 8 7 7 5 5 4 2 1 3 5 7 9 11 13 15 17 18 20 21 23 23 23 24 24 23 23 22 21 20 19 17 15 13 11 10 9 9 10 12 14 16 18
12 12 12 11 10 9 8 7 7 7 6 5 4 3 1 2 5 7 9 11 13 15 16 18 19 21 23 23 24 23 23 23 23 23 22 21 20 18 17 14 12 10 8 7 8 9 11 14 16
12 11 11 11 10 9 8 7 7 7 7 5 5 4 2 3 5 7 9 11 13 14 16 18 19 21 22 23 23 23 23 23 23 23 22 21 20 19 18 15 14 11 8 6 7 7 8 10 13
10 10 10 10 9 9 8 8 7 8 7 6 5 4 3 3 5 7 9 11 12 14 16 17 19 20 21 22 23 23 23 23 23 23 23 22 21 20 18 16 14 13 10 7 6 6 7 9 10
10 10 10 10 9 9 8 7 8 8 7 6 6 5 4 4 5 7 9 11 12 14 15 17 18 19 21 21 22 23 23 23 23 23 23 22 21 20 19 17 15 13 11 8 6 6 6 7 9
11 10 10 10 10 9 8 6 9 8 8 7 7 6 5 5 5 7 9 11 12 14 15 17 18 19 20 21 22 22 22 22 23 23 23 22 21 20 19 17 15 14 12 10 8 6 6 6 7
Wind_Direction
317 312 311 305 307 345 9 14 6 356 335 329 330 322 315 313 311 309 309 306 298 288 293 296 291 287 286 285 284 282 279 277 274 273 273 271 267 266 267 264 266 268 269 272 275 276 280 285 291
307 307 308 318 320 343 339 342 342 340 335 330 324 318 313 312 310 309 308 304 298 290 292 292 288 285 284 282 280 278 278 277 275 273 272 272 270 269 268 267 266 266 268 270 271 273 276 281 287
304 307 319 330 332 341 338 330 329 326 323 320 316 314 312 310 309 308 304 300 297 293 292 289 285 282 279 277 276 275 274 274 273 271 271 272 271 270 270 268 265 265 267 269 269 270 273 277 281
297 300 309 323 330 332 322 315 311 314 315 314 314 313 310 310 308 306 302 298 295 293 290 287 284 281 278 275 273 273 272 271 270 268 267 269 269 270 268 267 265 265 266 266 266 267 270 273 274
288 290 299 307 317 320 315 309 309 309 308 312 312 311 309 309 307 306 302 298 297 294 290 287 283 280 278 275 272 271 270 270 269 267 266 265 265 267 266 265 264 265 264 264 264 263 266 269 268
280 285 295 305 313 313 309 305 309 307 309 312 312 310 310 309 308 305 302 301 298 295 292 289 286 283 279 275 273 270 269 268 267 265 264 264 263 263 264 263 263 263 262 262 263 261 261 264 264
271 278 288 296 304 305 310 308 304 305 309 311 311 311 311 310 309 306 304 302 300 297 294 291 289 287 284 279 276 273 271 269 267 265 265 264 263 261 261 262 261 261 260 260 259 259 258 259 259
267 274 283 291 297 301 300 301 301 303 306 310 311 312 312 312 311 310 309 308 305 302 299 297 294 290 287 284 279 276 273 271 269 266 264 263 262 261 261 260 261 260 258 258 258 257 255 255 253
266 272 279 287 296 300 299 297 299 302 306 309 311 314 316 316 316 314 313 312 310 308 306 302 299 296 293 289 285 281 277 274 271 268 265 263 261 260 260 258 259 258 256 255 255 255 253 252 250
263 270 278 283 290 298 297 295 297 302 306 310 314 318 320 319 319 318 318 318 317 315 312 309 307 304 300 296 293 288 283 279 275 271 268 265 262 260 259 257 257 256 256 254 253 253 252 250 247
260 269 277 282 289 293 294 291 294 302 308 314 317 319 321 322 323 323 323 323 323 322 321 319 315 312 308 302 298 293 288 284 279 274 270 267 264 261 259 257 255 254 254 253 252 251 251 249 246
257 267 274 280 287 289 291 289 294 302 307 313 318 321 323 325 327 330 331 331 331 331 329 328 327 323 317 312 305 299 293 286 282 278 274 270 267 264 261 258 256 254 252 251 251 250 251 250 247
252 264 273 279 287 292 292 290 293 299 305 310 318 322 327 330 332 336 339 340 340 340 339 336 334 331 327 321 315 307 299 292 285 280 276 274 271 268 263 258 256 253 251 250 249 248 248 248 246
251 261 271 280 281 293 299 296 294 298 305 312 319 324 329 334 339 343 346 349 350 348 345 342 339 336 333 329 324 317 310 302 293 285 279 275 274 270 265 260 256 253 250 248 246 245 246 245 245
250 260 269 275 284 288 294 294 297 306 310 315 321 325 332 340 346 350 354 356 356 354 352 350 347 343 340 336 331 327 321 311 303 294 287 281 276 272 266 261 257 254 250 248 246 244 243 242 243
249 259 266 274 279 285 292 297 302 307 310 315 318 322 333 341 350 356 1 2 2 1 359 357 354 350 347 343 339 335 331 323 313 304 296 288 281 276 268 262 258 256 252 248 246 243 242 242 241
248 257 265 270 277 285 286 294 299 300 304 311 313 319 333 344 357 5 7 8 7 5 4 2 359 356 353 350 346 342 337 332 324 315 305 295 289 282 273 266 261 258 255 250 246 242 241 239 239
246 254 264 270 273 280 283 289 292 294 300 308 310 321 335 351 7 12 12 11 8 8 7 6 3 0 357 354 351 346 342 338 333 326 316 305 296 289 280 271 264 260 257 252 246 242 239 237 237
243 250 258 263 267 273 277 282 286 288 292 300 307 322 343 4 17 18 15 13 11 10 9 8 5 3 0 358 354 351 347 343 339 334 327 317 306 297 288 279 272 265 259 253 247 241 237 236 235
242 249 256 262 266 269 272 273 277 277 279 290 303 326 356 18 26 23 18 15 13 11 10 8 7 5 3 0 358 355 353 349 345 339 332 324 315 305 295 286 278 269 261 253 247 243 238 235 235
242 250 256 261 266 267 266 266 268 265 269 276 289 319 353 21 28 25 21 17 14 12 10 10 9 7 4 2 0 359 357 354 350 345 339 331 324 316 306 293 284 274 265 256 248 244 239 236 235
237 244 250 258 262 261 262 259 260 261 264 269 277 298 346 25 29 26 22 18 15 13 11 10 9 6 4 3 3 2 1 358 356 353 348 341 334 326 317 305 291 280 269 259 250 244 241 238 237
234 240 247 256 258 257 256 256 255 259 259 264 271 281 339 22 27 25 21 18 15 13 11 10 8 6 5 5 4 4 3 2 0 358 355 350 343 335 327 318 300 284 274 263 253 245 240 239 238
232 238 245 252 257 255 252 252 250 255 254 256 259 268 329 20 26 23 18 14 12 11 9 8 7 6 5 4 4 4 3 3 2 1 359 357 353 348 339 329 315 296 281 268 256 249 243 240 239
232 242 249 255 258 256 249 251 253 254 250 248 247 257 305 10 18 16 11 9 8 7 6 5 5 6 5 5 4 4 4 4 4 3 1 360 358 356 352 346 334 318 296 276 262 253 246 243 241
235 244 251 258 256 248 246 251 248 249 245 241 240 247 287 357 9 9 6 6 5 5 4 3 3 3 4 4 5 4 4 5 5 5 4 3 3 2 360 357 352 341 322 294 273 264 253 248 243
242 247 251 256 254 250 249 247 242 243 241 237 235 243 276 331 355 1 2 2 1 1 1 1 2 2 2 3 4 5 5 6 6 6 6 5 5 5 4 3 360 356 342 316 292 281 266 255 246
244 249 251 254 254 253 248 244 239 238 240 238 237 248 274 311 340 351 355 356 357 357 357 358 360 1 2 2 2 4 5 6 6 6 7 6 6 7 6 5 4 2 358 342 316 293 279 265 252
249 253 253 254 256 255 246 242 240 238 237 240 243 254 273 300 324 338 346 349 351 353 354 356 358 359 360 0 1 3 4 5 6 6 7 8 8 8 9 9 8 7 4 356 339 319 299 276 263
253 256 256 256 256 255 252 242 241 239 236 240 246 256 272 291 311 328 339 344 347 350 352 354 356 357 358 359 0 2 3 5 6 8 9 10 9 10 10 10 9 9 8 4 357 344 325 298 275
Height
5889 5889 5888 5888 5887 5886 5885 5885 5885 5885 5884 5884 5884 5883 5883 5883 5883 5884 5881 5878 5877 5876 5876 5875 5874 5874 5873 5872 5872 5872 5871 5871 5871 5871 5871 5871 5872 5872 5873 5873 5874 5874 5875 5875 5876 5876 5876 5877 5877
5889 5888 5888 5887 5886 5885 5885 5885 5885 5884 5884 5883 5883 5882 5881 5880 5879 5879 5877 5876 5875 5874 5873 5873 5872 5871 5871 5870 5869 5869 5869 5868 5868 5868 5868 5868 5868 5869 5869 5870 5871 5871 5872 5872 5873 5874 5874 5875 5875
5888 5888 5887 5885 5885 5885 5885 5884 5884 5883 5883 5882 5882 5881 5880 5878 5877 5876 5875 5874 5873 5872 5871 5870 5869 5868 5868 5867 5866 5866 5865 5865 5865 5865 5865 5865 5865 5866 5866 5866 5867 5868 5869 5869 5870 5871 5872 5872 5873
5888 5888 5887 5886 5885 5885 5885 5884 5883 5882 5882 5881 5880 5879 5878 5877 5875 5874 5872 5871 5870 5869 5868 5867 5865 5865 5864 5863 5862 5862 5862 5861 5861 5861 5861 5861 5861 5862 5862 5863 5864 5865 5865 5866 5867 5868 5869 5870 5870
5886 5886 5886 5885 5884 5884 5883 5883 5882 5881 5880 5879 5878 5877 5875 5874 5873 5871 5870 5868 5867 5865 5864 5863 5862 5860 5859 5859 5858 5858 5857 5857 5856 5856 5857 5857 5857 5857 5858 5859 5860 5860 5861 5862 5864 5865 5866 5867 5868
5885 5885 5885 5884 5883 5883 5882 5881 5880 5879 5879 5877 5876 5875 5873 5872 5870 5868 5866 5865 5863 5861 5860 5858 5857 5856 5855 5854 5853 5853 5852 5851 5851 5851 5851 5852 5852 5853 5853 5854 5855 5856 5857 5858 5860 5861 5863 5864 5865
5884 5883 5883 5882 5882 5881 5881 5880 5879 5878 5877 5876 5874 5873 5871 5869 5867 5865 5863 5861 5859 5857 5855 5853 5852 5850 5849 5848 5847 5847 5846 5846 5845 5845 5846 5846 5847 5847 5848 5849 5850 5851 5852 5854 5855 5857 5858 5860 5861
5881 5882 5880 5880 5880 5880 5879 5878 5877 5876 5875 5874 5872 5870 5868 5866 5864 5862 5859 5857 5855 5853 5850 5849 5847 5845 5843 5842 5841 5840 5840 5839 5839 5839 5839 5840 5841 5842 5843 5844 5845 5846 5847 5848 5850 5852 5854 5855 5857
5878 5880 5878 5878 5878 5877 5877 5876 5875 5874 5873 5871 5870 5868 5866 5863 5861 5859 5856 5853 5851 5848 5846 5844 5842 5840 5838 5836 5835 5834 5833 5832 5832 5832 5832 5833 5834 5835 5836 5837 5839 5840 5841 5843 5844 5846 5848 5850 5852
5876 5876 5876 5876 5876 5875 5875 5874 5873 5872 5870 5869 5867 5865 5863 5860 5858 5855 5853 5850 5847 5845 5842 5840 5838 5836 5834 5832 5830 5828 5827 5826 5826 5825 5826 5826 5827 5828 5829 5830 5832 5834 5835 5837 5839 5841 5843 5845 5848
5873 5873 5874 5874 5873 5873 5872 5871 5871 5870 5868 5866 5864 5862 5860 5858 5855 5853 5850 5847 5844 5842 5839 5836 5834 5832 5829 5827 5825 5823 5822 5821 5820 5819 5819 5819 5820 5820 5822 5823 5825 5827 5829 5831 5833 5835 5837 5840 5842
5870 5870 5871 5871 5871 5870 5870 5869 5868 5867 5866 5864 5862 5860 5857 5855 5853 5850 5847 5844 5842 5839 5836 5833 5831 5829 5826 5824 5821 5819 5817 5816 5814 5813 5813 5813 5813 5813 5814 5815 5817 5819 5822 5824 5827 5829 5831 5834 5837
5867 5868 5868 5868 5868 5868 5867 5866 5866 5865 5864 5862 5860 5857 5855 5853 5850 5848 5845 5842 5839 5836 5834 5831 5828 5826 5823 5820 5817 5815 5813 5811 5809 5808 5807 5807 5807 5807 5807 5808 5810 5812 5814 5817 5820 5822 5825 5828 5831
5864 5865 5866 5866 5866 5865 5865 5864 5864 5863 5861 5859 5857 5855 5853 5851 5849 5846 5843 5840 5837 5835 5832 5829 5826 5823 5820 5817 5814 5811 5808 5806 5804 5803 5802 5801 5800 5800 5801 5801 5803 5805 5807 5810 5813 5815 5819 5822 5825
5861 5863 5863 5864 5864 5863 5863 5862 5861 5860 5859 5857 5855 5854 5852 5850 5847 5845 5842 5839 5836 5834 5831 5827 5824 5821 5817 5814 5810 5807 5804 5801 5799 5797 5796 5795 5794 5794 5794 5795 5796 5797 5799 5802 5805 5809 5812 5815 5819
5859 5860 5861 5862 5861 5861 5862 5861 5859 5858 5857 5855 5854 5852 5850 5848 5846 5844 5841 5838 5836 5833 5829 5826 5822 5819 5815 5811 5808 5804 5801 5797 5795 5792 5791 5789 5789 5788 5788 5788 5789 5790 5792 5795 5798 5801 5805 5809 5812
5856 5858 5858 5859 5859 5858 5858 5858 5857 5856 5855 5853 5852 5850 5849 5847 5845 5843 5840 5838 5835 5832 5828 5825 5821 5817 5813 5809 5805 5801 5798 5794 5791 5788 5786 5785 5783 5782 5782 5782 5783 5784 5785 5788 5791 5794 5798 5801 5805
5854 5855 5856 5856 5856 5856 5856 5856 5855 5854 5853 5852 5850 5849 5847 5846 5844 5842 5839 5837 5834 5831 5828 5824 5820 5816 5812 5808 5804 5799 5796 5792 5788 5785 5783 5781 5779 5778 5777 5777 5777 5778 5779 5781 5783 5787 5790 5794 5798
5851 5853 5853 5854 5854 5854 5854 5854 5853 5852 5851 5850 5849 5848 5846 5845 5843 5841 5839 5836 5834 5830 5827 5823 5819 5815 5811 5806 5802 5798 5794 5790 5786 5783 5780 5777 5775 5774 5772 5772 5771 5772 5773 5774 5776 5779 5783 5787 5791
5848 5850 5851 5851 5851 5852 5852 5852 5851 5850 5850 5849 5848 5847 5845 5844 5842 5840 5838 5836 5833 5830 5826 5822 5819 5814 5810 5806 5801 5797 5792 5788 5784 5780 5777 5774 5772 5770 5768 5767 5767 5766 5767 5768 5770 5773 5776 5780 5784
5846 5848 5849 5849 5849 5850 5850 5850 5850 5849 5848 5848 5847 5846 5845 5843 5841 5839 5837 5835 5832 5829 5826 5822 5818 5814 5810 5805 5801 5796 5791 5786 5782 5778 5775 5772 5769 5766 5764 5763 5762 5762 5762 5763 5764 5767 5770 5773 5777
5844 5845 5846 5847 5847 5848 5849 5849 5849 5848 5847 5847 5846 5845 5844 5842 5841 5839 5837 5835 5832 5829 5825 5822 5818 5814 5810 5805 5800 5796 5791 5786 5781 5777 5773 5769 5766 5763 5761 5759 5758 5757 5757 5758 5759 5761 5764 5767 5771
5842 5843 5844 5844 5845 5846 5846 5847 5847 5846 5845 5845 5845 5844 5843 5842 5840 5838 5836 5834 5832 5829 5825 5822 5818 5814 5810 5805 5800 5795 5790 5785 5781 5776 5772 5768 5764 5761 5758 5756 5754 5753 5753 5753 5754 5756 5759 5762 5765
5840 5841 5842 5842 5843 5844 5844 5845 5846 5844 5844 5844 5844 5843 5842 5841 5839 5838 5836 5834 5831 5828 5825 5822 5818 5814 5810 5805 5800 5795 5790 5785 5780 5776 5771 5767 5763 5759 5756 5753 5751 5750 5749 5750 5751 5752 5754 5757 5760
5838 5840 5841 5841 5841 5842 5842 5843 5844 5843 5843 5843 5843 5842 5841 5840 5839 5837 5835 5833 5831 5828 5825 5822 5818 5814 5810 5805 5800 5795 5790 5786 5781 5776 5771 5766 5762 5758 5755 5752 5749 5747 5746 5747 5747 5748 5750 5752 5755
5836 5838 5839 5839 5839 5840 5840 5841 5843 5842 5841 5841 5841 5841 5840 5839 5838 5836 5835 5833 5830 5827 5824 5821 5818 5814 5810 5805 5800 5796 5791 5786 5781 5776 5771 5767 5762 5758 5754 5751 5748 5746 5745 5744 5745 5746 5747 5749 5751
5835 5835 5836 5837 5837 5838 5838 5840 5840 5840 5840 5840 5840 5840 5839 5838 5837 5836 5834 5832 5829 5827 5824 5821 5817 5813 5809 5805 5801 5796 5791 5786 5781 5777 5772 5767 5762 5758 5754 5751 5748 5745 5744 5743 5743 5743 5744 5745 5747
5833 5834 5834 5835 5835 5835 5837 5837 5838 5838 5838 5838 5838 5838 5838 5837 5836 5835 5833 5831 5829 5826 5823 5820 5817 5813 5809 5805 5801 5796 5791 5787 5782 5777 5772 5767 5763 5759 5755 5751 5748 5745 5743 5742 5742 5741 5742 5742 5744
5832 5833 5832 5833 5833 5834 5834 5838 5836 5836 5836 5836 5837 5837 5836 5836 5835 5833 5832 5830 5827 5825 5822 5819 5816 5813 5809 5805 5801 5796 5792 5787 5782 5778 5773 5768 5763 5759 5755 5751 5748 5746 5744 5742 5741 5740 5740 5740 5741
5830 5830 5831 5831 5831 5831 5832 5837 5833 5834 5834 5834 5835 5835 5835 5834 5833 5832 5830 5828 5826 5824 5821 5818 5815 5812 5809 5805 5800 5796 5792 5787 5783 5778 5773 5769 5764 5760 5756 5752 5749 5746 5744 5742 5740 5740 5739 5739 5739